Wind_Speed
9 10 10 10 9 6 4 4 4 3 4 5 5 4 3 2 2 4 5 9 11 6 6 6 5 6 4 3 5 2 8 9 8 7 6 1 5 1 1 0 3 3 4 5 5
9 9 10 10 8 6 5 3 3 3 3 3 4 4 5 4 5 4 6 8 11 7 3 6 7 7 8 4 2 8 8 7 6 9 9 4 7 4 5 5 4 4 4 3 3
10 9 10 9 8 5 3 1 2 3 4 5 5 8 5 6 4 2 6 8 9 8 6 5 5 6 9 7 6 5 12 5 5 8 7 7 9 8 10 10 8 7 2 2 3
9 9 10 9 8 5 3 3 5 6 7 9 9 7 6 5 2 4 10 9 7 8 7 6 7 8 8 8 6 6 5 4 5 8 11 14 13 13 12 13 4 4 4 4 5
9 8 9 8 7 5 5 5 8 10 12 10 6 5 7 5 10 8 10 9 8 9 7 6 8 6 10 5 8 10 8 10 8 9 13 14 16 16 14 7 7 7 6 7 8
8 7 8 8 7 5 6 9 13 14 10 6 6 7 5 9 7 8 9 9 7 7 7 5 4 4 3 4 9 2 6 8 7 9 10 11 14 7 8 5 7 6 7 8 6
6 6 8 9 9 9 12 16 15 11 8 6 7 10 2 7 5 5 8 3 5 6 7 6 4 5 5 5 3 6 10 9 7 5 4 7 14 16 3 5 8 9 8 7 4
6 6 10 12 13 14 15 14 12 8 7 7 7 5 6 6 4 4 3 2 4 4 3 3 3 3 5 3 6 9 7 12 11 8 5 5 12 9 2 5 9 10 10 8 8
5 6 10 12 11 12 12 9 7 7 6 5 5 2 8 2 4 2 2 2 4 4 3 1 1 2 7 11 9 9 10 7 8 2 2 8 10 12 4 8 10 12 11 11 12
4 7 10 9 8 7 6 4 5 5 4 6 6 4 4 6 3 2 2 2 5 5 5 6 5 7 5 8 8 5 9 5 6 6 5 11 13 12 7 10 11 11 10 9 7
5 7 9 7 5 4 2 3 1 2 3 5 5 5 5 2 1 1 3 3 4 6 5 5 8 3 5 2 2 1 3 5 1 2 9 7 10 14 9 11 10 6 6 2 1
6 6 8 7 6 5 2 1 3 2 4 3 2 2 2 2 3 4 2 4 6 4 5 7 3 2 2 3 3 3 4 5 4 3 10 12 15 13 7 7 4 2 1 4 5
8 5 6 7 5 3 5 3 2 1 2 5 3 3 3 2 5 9 3 2 2 2 1 5 7 3 4 6 6 2 7 5 8 11 15 11 16 6 7 6 4 4 3 5 6
7 7 6 5 2 2 1 2 0 1 5 4 4 3 2 1 4 4 4 1 2 3 1 3 3 0 5 3 6 9 3 6 8 10 9 5 7 9 6 7 5 6 6 6 7
5 3 2 1 2 0 4 3 2 3 3 3 5 1 1 2 3 4 6 1 6 5 6 7 1 3 6 4 3 5 4 7 10 13 8 11 7 4 2 9 7 7 7 7 7
6 3 2 3 2 5 4 3 2 6 3 4 2 1 5 2 3 3 3 4 2 1 4 5 3 4 4 2 3 3 8 13 9 8 10 5 5 4 2 3 3 7 8 8 8
5 5 4 4 2 1 4 4 5 3 3 4 1 1 3 3 4 2 4 6 6 3 4 3 5 5 7 5 4 5 9 6 5 6 6 4 7 10 6 3 6 5 10 9 8
2 7 7 4 2 1 2 5 3 2 3 3 0 5 2 2 4 2 2 2 6 5 1 3 7 0 5 5 6 4 5 5 7 8 13 4 6 5 5 4 5 5 7 9 9
4 4 9 4 3 2 6 3 3 2 2 0 3 3 4 3 2 3 3 3 5 8 5 4 3 1 3 1 5 4 4 6 10 16 9 10 9 9 3 1 4 7 7 8 8
4 3 6 6 2 2 5 4 3 2 2 1 1 3 1 2 3 2 1 4 3 5 6 3 5 3 2 3 5 5 5 5 5 5 11 11 18 13 8 6 8 10 15 13 13
2 3 7 6 2 3 1 4 5 5 1 3 2 2 2 1 2 0 2 5 4 3 4 4 2 5 4 5 9 6 6 4 5 7 9 13 7 8 1 5 4 9 17 19 19
2 3 9 4 4 1 3 2 1 1 2 3 3 3 1 1 1 1 1 4 3 5 4 4 4 8 11 10 4 8 10 8 7 11 8 10 13 13 9 7 10 21 18 24 24
2 3 9 2 1 4 4 4 6 2 5 1 2 3 0 1 1 1 1 7 6 5 3 2 2 6 5 6 5 5 1 8 10 8 14 14 15 13 28 23 26 24 22 22 28
3 1 6 11 6 3 2 2 3 7 5 3 2 1 2 3 1 2 2 3 3 4 2 4 8 10 9 13 12 15 16 15 15 5 19 19 28 24 21 21 23 22 25 28 29
6 4 3 3 6 6 1 0 2 2 2 2 2 0 1 2 4 4 1 5 2 2 3 3 7 10 13 14 13 16 18 17 17 20 18 23 24 24 22 17 22 25 26 28 30
5 3 2 3 2 1 0 2 0 2 3 1 3 0 1 3 3 8 4 4 4 3 2 3 7 7 14 14 10 15 16 16 18 18 20 22 23 16 24 28 27 26 31 34 35
7 5 2 1 0 3 3 1 1 2 1 2 2 4 5 4 4 7 8 10 11 10 8 5 2 3 6 2 13 14 5 6 10 13 15 16 19 21 20 22 27 36 39 39 38
Wind_Direction
358 359 359 359 358 352 313 289 261 228 213 206 196 198 199 175 181 181 204 205 194 190 200 191 215 211 186 177 231 192 248 249 264 272 269 244 261 43 103 78 82 80 80 105 101
358 359 360 357 351 341 330 304 252 220 201 191 172 148 123 119 132 194 206 178 183 184 159 184 193 186 198 188 180 227 244 269 308 311 279 292 287 307 265 225 178 156 111 100 112
357 359 1 358 354 348 341 346 183 173 158 148 145 126 117 133 162 119 162 156 158 154 164 184 181 203 219 207 179 207 253 207 256 257 250 276 259 258 268 256 255 266 226 242 231
358 4 5 5 9 30 56 81 121 136 137 133 129 118 115 124 146 138 120 119 135 146 153 169 192 209 232 213 193 209 259 233 254 247 261 257 273 256 258 273 346 281 289 270 257
358 11 17 23 35 49 70 93 115 123 124 123 112 115 124 135 102 107 101 98 104 141 159 182 200 208 224 206 197 231 178 213 230 251 260 266 258 265 265 258 278 276 268 266 262
7 20 32 36 40 58 86 109 117 119 114 103 98 123 122 108 116 100 91 87 112 124 134 160 170 192 180 209 238 130 228 228 235 247 240 252 248 236 220 283 264 265 258 250 255
24 41 52 58 63 83 103 113 112 106 92 80 96 122 74 100 112 118 110 115 128 124 117 109 119 213 174 174 192 217 240 201 218 231 207 253 250 225 219 255 261 254 252 240 234
45 68 81 82 81 96 105 106 100 83 70 81 109 117 93 108 104 106 163 146 128 144 117 115 87 144 230 151 193 227 236 235 135 209 160 212 275 115 196 285 266 253 249 254 251
68 98 106 93 93 103 104 93 69 53 59 85 95 172 116 91 109 119 137 180 165 156 151 154 164 190 184 214 214 208 260 214 152 146 244 232 296 140 293 301 283 273 269 267 266
86 126 125 105 100 113 96 61 50 50 73 79 88 201 115 94 97 89 56 161 185 178 177 199 201 209 197 213 248 216 231 206 257 125 274 269 258 277 296 294 287 285 282 277 276
88 141 138 114 96 102 67 22 238 116 46 40 62 75 115 122 73 15 337 166 184 209 206 192 223 209 60 315 343 252 253 278 269 47 310 276 280 279 283 267 263 282 291 262 327
77 139 146 125 100 61 32 43 58 68 117 65 65 75 102 96 107 44 77 200 204 144 180 199 105 57 169 172 216 241 264 264 272 293 308 298 289 281 244 256 266 265 119 113 108
72 98 150 148 123 104 78 70 74 59 218 101 82 76 93 98 60 49 62 121 91 153 351 343 51 126 205 185 234 240 314 329 316 315 274 292 277 170 183 208 179 161 131 110 111
80 94 101 131 119 166 36 11 92 358 205 101 142 108 172 125 81 41 30 347 169 39 56 54 80 11 211 220 286 287 56 300 299 310 307 8 294 213 187 208 207 173 167 145 136
70 87 95 44 139 274 269 289 231 289 195 120 101 106 164 356 115 72 26 67 48 69 263 82 193 238 237 28 301 11 322 297 297 288 304 234 256 129 162 235 198 200 180 166 155
46 40 353 316 314 280 270 205 200 231 116 141 133 149 182 153 91 109 81 65 44 59 48 78 103 17 36 93 21 323 271 265 270 269 249 69 286 287 102 305 215 189 194 182 173
17 20 29 27 272 357 141 166 221 299 163 119 74 255 100 92 123 14 61 49 14 267 68 151 97 103 15 262 192 283 291 296 250 217 301 68 286 276 328 308 306 246 207 204 194
16 50 24 21 36 65 187 230 253 98 61 100 15 111 109 342 90 98 190 118 56 346 320 316 170 315 0 336 327 332 327 307 297 318 315 249 270 58 60 19 352 298 257 224 220
221 288 7 357 312 277 239 248 56 77 33 1 161 235 128 105 324 225 51 41 39 12 1 319 129 117 52 303 308 93 278 4 287 266 265 268 276 263 195 5 50 14 330 288 256
230 238 346 350 350 155 242 64 109 59 346 274 244 318 202 39 241 288 164 30 90 28 345 60 290 98 114 241 199 299 358 252 222 288 296 289 300 287 167 57 7 11 3 355 336
167 227 341 354 37 228 254 88 115 60 344 345 89 118 74 33 325 46 70 94 18 51 9 333 266 138 248 232 323 279 237 221 316 293 277 296 290 55 40 309 334 338 344 333 323
92 223 338 355 212 37 111 41 351 73 73 95 70 64 31 33 348 204 169 46 57 7 336 46 305 282 294 327 309 269 283 281 257 272 245 284 277 287 5 334 277 316 320 315 314
26 11 356 110 193 123 121 109 55 31 44 24 108 4 2 63 15 274 36 132 45 356 4 8 234 303 292 164 178 241 262 280 272 281 255 266 267 295 306 302 322 318 313 307 311
353 195 38 52 54 27 133 120 131 44 70 55 92 202 223 226 318 289 241 121 349 332 292 229 248 251 262 294 316 285 270 266 263 225 271 267 288 299 305 315 321 328 316 308 310
24 60 15 36 55 60 334 344 182 130 55 39 158 286 313 312 302 279 271 297 258 67 160 308 270 280 279 284 281 276 276 277 270 269 267 282 281 298 306 333 326 316 318 313 306
38 355 39 75 347 283 63 82 19 100 330 155 269 179 250 257 221 287 309 285 292 142 311 296 277 297 291 275 275 280 281 279 271 275 277 282 286 312 323 317 318 315 315 310 302
35 33 355 63 46 267 49 55 69 320 94 21 350 292 269 351 320 307 294 281 277 282 283 263 280 291 274 339 296 281 296 274 304 296 286 285 300 314 312 320 317 314 311 308 304
Height
1513 1511 1509 1507 1506 1504 1503 1503 1503 1503 1503 1504 1504 1505 1506 1506 1506 1508 1511 1511 1511 1512 1514 1515 1517 1519 1519 1519 1522 1519 1513 1512 1506 1507 1501 1507 1505 1509 1511 1510 1511 1512 1512 1515 1515
1512 1510 1509 1506 1505 1503 1503 1502 1502 1502 1503 1504 1504 1505 1505 1506 1507 1509 1509 1508 1509 1511 1514 1517 1518 1519 1519 1518 1520 1519 1511 1508 1510 1510 1507 1509 1510 1509 1509 1508 1509 1512 1514 1515 1516
1511 1509 1508 1506 1504 1502 1501 1501 1501 1502 1502 1503 1504 1505 1506 1506 1509 1509 1507 1508 1509 1511 1513 1515 1515 1517 1515 1516 1520 1515 1510 1510 1511 1514 1515 1512 1511 1511 1509 1505 1506 1509 1511 1514 1515
1510 1509 1507 1505 1503 1502 1501 1501 1501 1502 1503 1504 1505 1506 1507 1507 1504 1509 1508 1508 1509 1511 1513 1515 1515 1514 1511 1511 1515 1515 1512 1511 1513 1515 1515 1512 1510 1510 1509 1507 1510 1512 1513 1513 1514
1509 1508 1506 1505 1503 1502 1502 1502 1502 1503 1504 1506 1507 1507 1507 1508 1510 1509 1508 1509 1509 1511 1514 1514 1513 1513 1510 1510 1514 1512 1512 1517 1516 1515 1513 1513 1513 1508 1506 1509 1512 1512 1511 1512 1512
1509 1508 1507 1505 1504 1503 1503 1503 1504 1505 1507 1507 1507 1507 1508 1508 1511 1510 1510 1511 1512 1513 1513 1513 1513 1514 1512 1511 1512 1512 1513 1512 1514 1511 1513 1513 1508 1511 1508 1511 1510 1510 1509 1510 1510
1509 1508 1507 1506 1505 1504 1505 1505 1507 1508 1508 1508 1508 1509 1509 1512 1512 1512 1511 1513 1512 1514 1514 1514 1514 1514 1513 1512 1515 1513 1511 1508 1509 1510 1509 1512 1506 1504 1506 1510 1508 1508 1508 1508 1509
1510 1509 1509 1508 1508 1508 1508 1509 1510 1510 1509 1509 1509 1510 1511 1512 1512 1512 1513 1513 1512 1513 1514 1514 1513 1514 1513 1515 1513 1508 1508 1503 1501 1509 1510 1510 1496 1496 1508 1507 1504 1505 1505 1506 1506
1511 1511 1511 1511 1511 1511 1511 1511 1511 1511 1510 1510 1511 1510 1511 1513 1513 1513 1513 1513 1513 1513 1513 1513 1513 1512 1513 1507 1506 1504 1498 1498 1499 1507 1506 1505 1494 1497 1505 1504 1502 1501 1502 1503 1503
1511 1512 1512 1513 1513 1513 1513 1513 1513 1513 1512 1512 1512 1513 1513 1513 1513 1513 1513 1513 1513 1513 1513 1512 1510 1504 1502 1500 1499 1493 1499 1499 1500 1501 1505 1500 1498 1495 1500 1502 1500 1500 1500 1500 1500
1512 1513 1514 1514 1514 1515 1514 1514 1516 1516 1514 1513 1513 1512 1513 1514 1513 1513 1512 1512 1511 1510 1504 1508 1501 1497 1500 1502 1502 1501 1501 1502 1502 1505 1507 1496 1498 1495 1496 1499 1498 1498 1498 1498 1499
1514 1514 1515 1516 1516 1515 1515 1516 1515 1517 1514 1514 1514 1514 1513 1513 1512 1512 1512 1511 1508 1504 1506 1505 1501 1506 1507 1506 1504 1503 1502 1499 1501 1504 1507 1497 1496 1489 1495 1496 1499 1499 1498 1498 1499
1516 1516 1516 1517 1517 1517 1517 1516 1515 1515 1511 1514 1514 1513 1513 1514 1512 1512 1512 1510 1506 1505 1503 1499 1506 1508 1506 1506 1505 1503 1505 1505 1509 1504 1496 1498 1482 1485 1493 1497 1498 1499 1499 1499 1500
1518 1518 1518 1518 1520 1518 1518 1516 1515 1515 1504 1513 1511 1514 1514 1513 1513 1514 1513 1512 1508 1507 1506 1505 1509 1508 1505 1506 1507 1506 1507 1509 1508 1507 1502 1499 1498 1478 1484 1490 1495 1497 1498 1499 1501
1520 1519 1519 1518 1518 1519 1518 1516 1516 1516 1515 1513 1511 1514 1513 1511 1513 1514 1514 1510 1508 1509 1507 1511 1510 1509 1507 1509 1511 1509 1510 1510 1508 1505 1504 1488 1501 1471 1485 1487 1489 1495 1498 1499 1501
1521 1519 1519 1518 1518 1517 1515 1516 1517 1513 1523 1511 1511 1511 1509 1511 1512 1514 1514 1514 1513 1510 1509 1512 1515 1513 1512 1514 1513 1513 1509 1503 1503 1499 1499 1492 1501 1472 1477 1484 1483 1491 1497 1499 1501
1521 1519 1518 1517 1518 1515 1515 1517 1512 1509 1512 1513 1511 1510 1509 1512 1512 1513 1513 1514 1512 1513 1513 1512 1513 1515 1515 1511 1511 1509 1507 1504 1501 1494 1493 1497 1502 1482 1480 1485 1487 1487 1494 1499 1501
1521 1520 1518 1517 1516 1515 1516 1513 1515 1514 1511 1513 1513 1510 1513 1513 1514 1514 1514 1514 1519 1515 1514 1514 1519 1515 1519 1517 1516 1513 1514 1513 1524 1505 1496 1487 1498 1479 1487 1491 1492 1493 1492 1497 1501
1520 1520 1519 1516 1515 1514 1516 1508 1513 1513 1514 1513 1512 1511 1514 1515 1516 1515 1518 1519 1523 1521 1522 1517 1516 1519 1520 1520 1518 1513 1511 1514 1517 1500 1508 1487 1478 1478 1482 1489 1493 1495 1497 1498 1501
1519 1519 1519 1515 1514 1514 1510 1517 1515 1517 1517 1515 1515 1515 1516 1518 1516 1515 1518 1526 1526 1527 1525 1525 1526 1519 1520 1521 1519 1518 1517 1518 1510 1530 1514 1485 1481 1475 1479 1491 1498 1500 1501 1501 1503
1518 1518 1517 1515 1514 1513 1509 1514 1516 1520 1520 1518 1518 1519 1520 1521 1521 1520 1522 1529 1529 1528 1528 1527 1529 1520 1520 1514 1515 1515 1512 1517 1520 1514 1514 1505 1486 1482 1490 1493 1501 1501 1505 1507 1508
1517 1514 1517 1515 1513 1514 1511 1519 1523 1521 1521 1521 1521 1521 1522 1524 1523 1522 1523 1527 1533 1532 1529 1531 1528 1526 1517 1515 1521 1520 1518 1516 1524 1522 1508 1515 1504 1483 1489 1495 1498 1499 1504 1508 1508
1520 1519 1517 1514 1510 1514 1521 1522 1525 1522 1524 1522 1523 1524 1525 1525 1531 1525 1526 1533 1535 1533 1532 1531 1527 1533 1520 1519 1519 1519 1522 1519 1517 1518 1524 1520 1494 1482 1490 1491 1493 1497 1500 1503 1505
1523 1516 1520 1520 1524 1520 1520 1522 1524 1527 1527 1527 1527 1527 1526 1525 1527 1526 1526 1533 1536 1536 1537 1536 1529 1528 1528 1515 1516 1521 1517 1515 1517 1534 1515 1508 1492 1491 1491 1492 1495 1499 1502 1502 1500
1525 1530 1530 1523 1526 1526 1526 1526 1524 1526 1528 1528 1527 1527 1528 1539 1527 1526 1529 1529 1532 1536 1536 1534 1530 1523 1520 1520 1520 1518 1515 1512 1512 1507 1511 1499 1497 1491 1490 1494 1499 1502 1501 1501 1498
1531 1532 1533 1532 1533 1528 1530 1528 1528 1530 1531 1528 1528 1531 1530 1531 1532 1533 1531 1531 1532 1533 1534 1535 1532 1528 1524 1515 1516 1515 1511 1510 1507 1505 1502 1498 1493 1493 1494 1497 1498 1499 1498 1495 1491
1534 1534 1534 1535 1532 1528 1530 1532 1532 1534 1535 1534 1534 1532 1531 1532 1536 1535 1536 1536 1536 1536 1535 1536 1534 1537 1523 1516 1517 1513 1506 1505 1506 1505 1504 1503 1496 1499 1497 1501 1501 1497 1493 1489 1483